This is the latest recevied weather packets stored in our database for station/object WZ8H. If no packets are shown the sender has not sent any weather packets the latest 10 day(s).
| Time | Temp. | Humidity | Pressure | Rain* | Wind** | Luminosity | Snow |
|---|---|---|---|---|---|---|---|
| 1777644234 | 5° C | 92% | 1012.1 hPa | 0.51 mm | - | 67 W/m² | - |
| 1777643919 | 5.56° C | 92% | 1012 hPa | 0.51 mm | - | 69 W/m² | - |
| 1777643617 | 5.56° C | 92% | 1012 hPa | 0.51 mm | - | 65 W/m² | - |
| 1777643294 | 5.56° C | 92% | 1012 hPa | 0.76 mm | - | 56 W/m² | - |
| 1777642977 | 5° C | 92% | 1012 hPa | 0.76 mm | - | 46 W/m² | - |
| 1777642652 | 5° C | 92% | 1012 hPa | 0.51 mm | - | 49 W/m² | - |
| 1777642328 | 5° C | 91% | 1012 hPa | 0.76 mm | - | 51 W/m² | - |
| 1777642010 | 5° C | 91% | 1012.1 hPa | 0.76 mm | - | 54 W/m² | - |
| 1777641707 | 5° C | 91% | 1012.1 hPa | 0.76 mm | - | 44 W/m² | - |
| 1777641389 | 5.56° C | 91% | 1012.1 hPa | 0.76 mm | - | 60 W/m² | - |
| 1777641065 | 5.56° C | 91% | 1012 hPa | 0.51 mm | - | 113 W/m² | - |
| 1777640739 | 5° C | 91% | 1012.2 hPa | 0.51 mm | - | 88 W/m² | - |
| 1777640412 | 5.56° C | 91% | 1012.2 hPa | 0.51 mm | - | 37 W/m² | - |
| 1777640099 | 5.56° C | 91% | 1012.3 hPa | 0.76 mm | - | 35 W/m² | - |
| 1777639791 | 5° C | 91% | 1012.3 hPa | 0.51 mm | - | 70 W/m² | - |
| 1777639492 | 5° C | 91% | 1012.3 hPa | 0.76 mm | - | 67 W/m² | - |
| 1777639168 | 5° C | 91% | 1012.3 hPa | 1.02 mm | - | 58 W/m² | - |
| 1777638842 | 5° C | 91% | 1012.3 hPa | 1.02 mm | - | 39 W/m² | - |
| 1777638541 | 5° C | 90% | 1012.3 hPa | 1.27 mm | - | 26 W/m² | - |
| 1777638223 | 5° C | 90% | 1012.2 hPa | 1.78 mm | - | 23 W/m² | - |
| 1777637897 | 5° C | 90% | 1012.3 hPa | 2.29 mm | - | 19 W/m² | - |
| 1777637581 | 5° C | 90% | 1012.3 hPa | 2.54 mm | - | 12 W/m² | - |
| 1777637251 | 5° C | 90% | 1012.3 hPa | 3.05 mm | - | 9 W/m² | - |
| 1777636948 | 5° C | 90% | 1012.4 hPa | 3.05 mm | - | 9 W/m² | - |
| 1777636627 | 5° C | 90% | 1012.4 hPa | 3.3 mm | - | 11 W/m² | - |
* Rain latest hour (hover to see other rain measurements)
** Current wind speed in m/s (hover to see current wind gust speed)